Regional Weather Roundup
Issued by NWS

Home | Current Version | Previous Version | Graphics & Text | Print | Product List | Glossary On
Versions: 1 2 3 4 5 6 7 8 9 10 11 12 13 14 15 16 17 18 19 20 21 22 23 24 25 26 27 28
000
ASUS45 KCYS 011110
RWRWY

WYOMING REGIONAL WEATHER ROUNDUP
NATIONAL WEATHER SERVICE CHEYENNE WY
500 AM MDT SUN MAY 01 2016

NOTE:  "FAIR" INDICATES FEW OR NO CLOUDS BELOW 12,000 FEET
WITH NO SIGNIFICANT WEATHER AND/OR OBSTRUCTIONS TO VISIBILITY.

WYZ001-011200-
YELLOWSTONE NATIONAL PARK

CITY           SKY/WX    TMP DP  RH WIND       PRES   REMARKS
LK YELLOWSTONE   N/A     29  20  69 CALM      30.29S
W YELLOWSTONE  NOT AVBL

$$
WYZ002>013-054>058-071-098>099-011200-
NORTHERN WYOMING

CITY           SKY/WX    TMP DP  RH WIND       PRES   REMARKS
JACKSON        FAIR      37  21  52 NE12G21   30.23S WCI  30
CODY           CLOUDY    37  34  87 N6        30.30S WCI  33
GREYBULL       CLOUDY    35  32  88 CALM      30.29S
WORLAND        CLOUDY    39  35  86 S8        30.29R WCI  33
SHERIDAN       CLOUDY    38  34  85 SW3       30.32S
BUFFALO          N/A    N/A N/A N/A MISG      30.32R
GILLETTE       FAIR      29  26  89 W5        30.31R WCI  24
HULETT         FAIR      32  28  86 CALM      30.31S
NEWCASTLE      FAIR      32  27  80 NW6       30.29S WCI  26

$$
WYZ014>020-022>026-101>103-011200-
CENTRAL WYOMING

CITY           SKY/WX    TMP DP  RH WIND       PRES   REMARKS
BIG PINEY      FAIR      25  22  88 W5        30.23R WCI  19
PINEDALE       FAIR      27  25  93 W7        30.23R WCI  19
DUBOIS         NOT AVBL
LANDER         CLOUDY    34  30  85 N3        30.27S
RIVERTON       FAIR      34  31  88 N3        30.29S
CASPER         CLOUDY    31  27  85 N8        30.28S WCI  23
DOUGLAS        FAIR      28  26  92 NW6       30.29S WCI  22

$$
WYZ021-027>030-104>119-011200-
SOUTHERN WYOMING

CITY           SKY/WX    TMP DP  RH WIND       PRES   REMARKS
EVANSTON       MOCLDY    32  24  72 E21G31    30.16S WCI  20
FORT BRIDGER   MOSUNNY   30  30 100 E14       30.22R WCI  20
ROCK SPRINGS   CLOUDY    33  26  75 E26G32    30.21R WCI  20
DIXON          FAIR      33  23  67 NE13      30.19S WCI  23
RAWLINS        FAIR      30  24  78 NE16      30.22R WCI  19
SARATOGA       FAIR      30  23  74 NE9       30.22R WCI  22
LARAMIE        CLOUDY    26  23  88 NE9       30.22R WCI  17
CHEYENNE       CLOUDY    31  28  89 N16G23    30.22R WCI  20
TORRINGTON     CLOUDY    37  32  82 NW12      30.25S WCI  29
PINE BLUFFS    CLOUDY    32  32 100 N13       30.22S WCI  22

$$




USA.gov is the U.S. government's official web portal to all federal, state and local government web resources and services.